Wind_Speed
43 43 43 44 44 43 43 43 43 43 44 44 43 43 42 41 41 40 39 38 38 38 38 37 37 37 37 37 37 37 36 35 35 35 35 35 35 35 35 35 35 36 36
43 43 43 44 45 45 44 45 45 44 44 44 45 45 45 44 43 43 42 40 40 40 40 40 40 39 39 39 38 38 38 37 37 37 37 37 36 36 36 36 37 37 37
42 43 44 44 45 45 45 45 45 45 45 45 46 47 46 45 44 43 42 42 42 42 42 42 42 41 41 40 40 39 39 39 39 39 39 39 38 38 38 38 38 38 38
40 41 42 44 44 45 45 45 46 46 47 47 47 47 47 46 45 44 44 44 44 44 44 44 43 42 42 42 41 41 40 40 40 40 40 40 40 40 39 39 39 39 39
40 40 40 42 43 44 45 45 45 46 47 47 47 47 47 47 46 46 45 45 45 45 45 45 45 44 43 43 43 42 41 41 41 41 41 42 42 41 41 40 39 40 40
39 39 40 41 42 43 44 44 45 46 46 47 47 47 47 48 48 47 46 46 46 47 46 46 46 45 45 44 44 44 43 43 43 43 43 43 43 43 42 42 41 41 41
38 39 40 41 41 42 43 44 46 47 47 48 48 48 48 49 49 49 48 47 47 47 47 47 48 47 46 46 45 45 44 44 44 44 44 44 44 43 43 43 42 42 42
39 40 41 41 42 42 43 45 46 47 48 48 48 48 49 50 50 50 49 49 48 48 48 48 48 48 48 47 47 46 46 46 46 46 46 45 45 45 45 45 44 44 44
41 41 41 42 42 43 43 45 46 47 49 49 49 49 49 50 50 51 50 50 50 50 50 50 50 50 51 50 49 48 48 48 47 47 47 46 46 46 46 46 47 46 45
41 42 42 43 43 43 44 45 47 48 49 49 50 50 50 51 51 51 50 50 51 52 51 51 51 52 52 51 51 51 49 49 49 48 48 47 47 47 48 48 48 48 47
42 42 42 42 43 43 43 45 47 49 50 50 50 50 50 51 51 51 51 52 52 52 52 52 53 53 53 53 53 52 51 50 50 50 49 48 48 49 48 48 48 48 48
43 44 44 44 43 43 43 44 46 48 49 50 51 51 51 52 52 51 52 52 53 53 53 54 54 54 54 54 54 53 52 51 50 50 50 49 49 49 49 49 50 50 50
43 44 44 44 44 44 44 44 45 47 48 49 50 50 51 51 52 52 52 52 53 54 54 54 55 54 55 55 55 53 53 52 51 50 50 50 50 49 50 50 50 50 51
43 43 44 45 45 45 45 45 45 46 47 48 49 50 51 51 52 53 53 53 54 54 55 55 54 54 54 55 54 53 53 53 52 51 51 51 51 51 51 51 51 51 51
45 45 45 45 45 45 45 45 45 46 47 47 49 50 51 51 52 53 54 54 55 55 55 55 53 53 54 54 53 53 53 53 53 53 53 52 52 53 52 52 52 51 51
44 44 45 45 45 45 44 44 45 46 47 47 48 49 50 52 53 52 52 53 54 54 54 54 53 52 52 52 52 52 52 52 52 53 53 53 53 52 52 51 50 50 50
42 42 42 43 44 44 44 44 44 45 46 47 48 49 50 51 52 53 52 52 53 53 53 53 52 51 51 51 51 51 51 51 51 51 52 53 52 52 52 52 51 50 49
41 41 42 42 43 44 44 44 44 45 46 47 47 49 50 51 51 52 52 51 51 52 52 51 51 50 49 50 49 49 49 49 49 49 50 50 50 50 51 51 49 49 49
41 41 42 42 43 44 45 45 44 44 45 46 47 48 49 50 50 51 51 50 50 50 50 49 49 49 48 49 48 48 49 48 48 48 48 48 48 48 48 47 47 47 48
42 41 41 41 42 43 44 44 44 43 43 44 45 46 47 48 48 49 49 49 48 48 48 48 47 47 47 48 48 49 49 48 48 47 47 46 46 46 47 47 47 48 48
43 43 42 41 41 41 42 42 43 43 42 42 43 44 45 46 46 47 48 48 48 48 48 47 47 46 46 47 47 47 47 47 47 47 46 46 45 46 46 47 47 48 48
42 42 42 41 41 40 41 41 41 42 41 41 42 42 43 43 44 44 45 46 47 48 48 48 47 46 45 45 46 46 46 46 47 47 46 46 46 46 46 47 48 48 48
40 40 40 40 40 40 40 40 40 41 41 40 40 40 41 42 43 44 44 44 44 44 44 45 45 45 45 45 44 45 46 46 47 46 46 46 46 46 46 46 46 46 46
38 38 38 37 37 37 38 38 38 39 39 39 38 38 39 39 40 41 42 42 43 44 44 45 44 44 45 46 45 45 45 45 44 44 44 44 44 44 44 44 45 45 44
37 37 37 36 36 36 35 36 36 36 37 37 37 36 37 38 38 39 41 41 41 41 42 43 43 44 44 45 45 44 43 43 43 44 43 42 42 42 42 42 42 42 43
36 36 35 34 34 34 34 34 35 35 36 36 36 36 37 37 38 39 39 40 40 41 41 40 41 41 42 43 43 43 42 42 42 42 43 42 41 41 41 41 41 41 42
Wind_Direction
258 258 257 256 255 254 253 253 254 253 254 253 253 252 252 252 253 253 256 258 259 260 262 263 265 266 268 269 271 273 274 274 275 276 277 279 281 282 284 286 288 289 290
259 257 256 256 256 255 253 253 253 253 253 253 252 251 251 252 253 254 256 258 260 261 261 262 264 266 267 269 270 272 273 273 274 275 276 278 279 281 282 284 287 288 288
260 258 257 257 256 256 255 254 254 253 253 253 252 251 251 252 253 254 257 258 259 261 262 263 264 265 267 268 269 271 272 273 273 274 276 278 279 279 281 283 285 286 287
261 259 258 257 257 256 256 255 254 253 253 253 252 252 252 252 253 254 257 257 259 261 263 263 264 266 267 268 269 271 271 272 274 274 276 277 278 279 280 282 283 284 286
264 263 261 260 258 256 255 254 254 253 252 252 252 252 251 252 252 254 256 258 259 261 263 264 264 264 266 267 269 270 271 273 273 274 275 276 278 279 280 281 282 283 284
265 266 265 262 259 256 255 255 254 253 252 252 252 252 251 251 252 255 257 258 259 260 261 263 264 264 265 266 268 269 270 271 273 274 275 276 277 279 280 281 282 282 284
264 265 265 264 261 258 256 255 254 253 251 252 251 252 252 251 253 255 257 258 259 260 261 262 263 263 265 266 267 268 270 271 272 274 275 277 278 279 280 280 281 282 283
265 265 266 265 263 261 259 257 255 253 252 252 252 253 253 253 253 255 257 258 258 259 259 262 263 263 264 265 266 269 270 271 272 273 275 276 277 278 279 280 281 281 283
268 267 265 265 265 263 259 258 256 254 253 254 254 254 254 254 254 255 257 258 258 259 259 261 262 263 264 265 266 268 270 271 272 272 273 275 276 277 278 279 280 281 282
270 268 267 266 265 264 260 258 258 256 255 255 254 254 255 255 256 256 257 258 258 259 260 261 262 263 263 264 265 267 269 270 271 271 272 273 275 276 277 278 279 280 282
268 267 268 267 265 263 262 261 260 258 257 255 254 254 254 255 256 256 257 258 258 259 260 262 262 262 263 264 265 266 267 269 269 270 271 272 273 275 277 278 279 280 281
270 269 269 268 266 264 262 262 261 259 258 257 256 255 255 256 256 257 257 258 259 259 260 262 262 263 263 263 264 265 266 267 269 269 270 271 273 274 276 277 278 279 281
273 272 270 269 268 267 265 263 261 259 258 258 257 256 257 257 258 258 258 259 260 261 261 262 263 263 263 263 263 264 265 266 268 268 269 270 272 273 275 276 278 279 280
274 273 271 269 268 269 268 265 262 261 259 258 257 257 258 259 259 260 259 259 260 261 262 262 263 263 263 264 264 264 265 266 266 267 268 270 271 272 274 276 277 278 279
275 274 273 271 269 269 269 266 264 262 261 260 258 257 258 259 259 259 260 260 260 261 262 262 262 263 264 264 264 264 264 265 265 267 268 270 272 272 274 275 276 277 279
277 275 273 271 269 269 268 266 263 262 262 262 260 259 259 259 259 260 260 261 261 262 261 261 262 263 263 263 263 263 264 265 266 268 269 270 271 272 274 274 276 277 279
278 276 275 273 270 267 266 266 265 263 263 262 261 261 261 261 260 260 261 261 261 262 262 262 262 262 262 262 263 263 264 265 267 268 269 270 271 273 274 275 275 276 278
277 275 274 272 269 266 265 264 265 265 263 263 262 262 261 261 261 260 261 262 262 262 262 263 263 263 263 263 263 263 264 265 266 267 269 270 271 272 273 274 276 277 278
278 276 275 273 270 268 266 265 265 265 264 264 264 264 263 261 261 260 261 262 262 261 262 263 263 264 264 263 263 264 265 266 267 268 268 270 271 272 273 274 276 277 279
278 278 277 275 271 268 266 266 267 266 265 264 264 265 264 263 262 260 259 260 261 262 262 263 263 264 264 264 264 266 266 267 267 267 268 270 271 271 272 275 276 278 279
279 278 277 276 273 270 268 267 267 266 266 265 264 263 264 263 263 261 259 260 260 261 263 263 264 264 264 263 263 264 264 265 265 266 268 269 270 272 274 275 277 279 280
280 279 277 276 274 272 271 269 268 267 267 268 266 264 263 263 263 263 262 261 263 264 264 265 264 263 263 263 263 263 264 264 265 267 269 269 270 272 274 276 277 279 280
280 279 278 277 275 273 272 271 271 269 268 269 267 265 264 264 263 263 263 264 264 263 263 264 264 263 263 263 264 265 266 266 267 267 268 269 270 272 274 276 277 279 280
278 279 278 277 275 274 273 273 272 271 270 270 269 267 265 265 264 264 264 264 264 264 264 263 263 264 264 264 264 266 266 266 266 267 268 270 270 272 275 277 278 280 281
278 278 277 276 276 276 274 273 272 270 270 270 270 268 267 266 265 264 265 265 264 264 264 264 263 264 264 264 264 265 265 266 266 267 268 269 271 274 276 277 278 279 281
280 278 278 277 275 274 275 273 271 271 270 269 269 269 269 267 266 265 264 264 264 264 264 265 265 265 265 265 265 265 266 266 266 267 268 270 272 274 276 277 278 279 281
Height
5725 5726 5728 5730 5732 5735 5737 5740 5742 5745 5747 5749 5753 5756 5759 5761 5764 5766 5767 5769 5770 5771 5773 5774 5775 5776 5776 5777 5777 5777 5777 5776 5776 5776 5775 5775 5774 5773 5772 5771 5769 5768 5766
5713 5715 5717 5719 5721 5724 5727 5729 5732 5735 5737 5740 5743 5746 5749 5751 5754 5756 5758 5760 5761 5763 5764 5765 5766 5767 5767 5768 5768 5768 5768 5768 5767 5767 5766 5766 5767 5765 5764 5762 5761 5759 5757
5703 5705 5707 5708 5710 5713 5716 5719 5721 5724 5727 5730 5732 5735 5738 5741 5745 5747 5749 5750 5751 5753 5754 5755 5756 5757 5758 5759 5759 5759 5759 5759 5759 5758 5758 5757 5757 5756 5755 5754 5752 5750 5749
5693 5694 5696 5697 5700 5702 5705 5708 5710 5713 5716 5719 5721 5724 5728 5731 5735 5737 5739 5740 5741 5743 5744 5745 5747 5748 5748 5749 5749 5749 5749 5749 5749 5749 5748 5748 5747 5747 5746 5745 5743 5741 5739
5683 5684 5685 5687 5688 5691 5694 5696 5699 5702 5705 5707 5710 5713 5717 5721 5724 5726 5728 5729 5731 5733 5734 5735 5736 5738 5738 5739 5739 5739 5739 5740 5739 5739 5738 5737 5736 5736 5735 5735 5734 5732 5730
5673 5674 5675 5676 5677 5680 5683 5685 5687 5691 5693 5696 5699 5702 5705 5709 5711 5714 5716 5718 5720 5722 5723 5724 5725 5726 5728 5728 5729 5728 5729 5729 5729 5729 5728 5727 5726 5726 5724 5724 5723 5722 5720
5664 5665 5666 5666 5668 5669 5672 5674 5676 5679 5682 5684 5687 5690 5693 5696 5699 5702 5704 5706 5708 5710 5712 5712 5713 5714 5716 5717 5717 5717 5718 5718 5718 5718 5718 5717 5716 5715 5714 5713 5712 5711 5709
5655 5655 5656 5657 5658 5660 5661 5663 5665 5668 5671 5673 5676 5678 5681 5684 5687 5689 5692 5694 5696 5699 5700 5700 5701 5702 5704 5705 5706 5706 5707 5707 5707 5707 5706 5706 5705 5704 5703 5702 5700 5699 5698
5645 5645 5646 5646 5647 5649 5650 5652 5654 5657 5659 5661 5664 5666 5669 5671 5674 5677 5679 5681 5684 5685 5687 5688 5689 5690 5691 5693 5694 5695 5695 5695 5695 5695 5695 5694 5694 5693 5692 5690 5689 5688 5686
5634 5634 5634 5635 5636 5637 5639 5640 5642 5645 5647 5649 5651 5654 5656 5659 5661 5663 5666 5668 5670 5672 5673 5675 5676 5678 5679 5680 5681 5682 5682 5682 5683 5683 5683 5682 5682 5681 5680 5679 5677 5675 5674
5623 5623 5623 5624 5624 5626 5627 5628 5630 5632 5634 5636 5638 5641 5643 5645 5648 5650 5652 5654 5656 5658 5660 5661 5663 5664 5665 5666 5667 5668 5669 5669 5670 5670 5670 5670 5669 5669 5668 5666 5665 5663 5661
5611 5611 5612 5612 5612 5614 5615 5616 5617 5619 5621 5623 5626 5628 5630 5632 5634 5637 5639 5641 5642 5644 5646 5647 5648 5649 5651 5652 5653 5654 5655 5656 5656 5657 5657 5657 5656 5656 5655 5654 5653 5651 5649
5599 5599 5599 5600 5600 5602 5603 5604 5605 5606 5608 5610 5612 5614 5616 5618 5620 5622 5625 5626 5628 5629 5631 5632 5633 5635 5636 5637 5639 5640 5641 5642 5643 5643 5644 5644 5642 5642 5642 5641 5640 5638 5636
5587 5587 5586 5587 5588 5589 5590 5591 5592 5594 5595 5597 5598 5601 5603 5604 5606 5608 5610 5612 5613 5614 5616 5617 5618 5620 5621 5622 5624 5625 5627 5628 5629 5629 5630 5630 5629 5629 5628 5627 5626 5625 5623
5575 5574 5574 5574 5575 5576 5577 5578 5579 5580 5581 5583 5584 5586 5588 5589 5591 5594 5595 5597 5598 5599 5601 5602 5603 5605 5606 5608 5609 5611 5612 5613 5614 5615 5616 5616 5615 5615 5614 5614 5613 5611 5610
5562 5562 5561 5561 5561 5562 5563 5564 5565 5566 5568 5568 5569 5571 5573 5575 5577 5579 5580 5582 5583 5585 5586 5588 5589 5590 5592 5594 5595 5596 5597 5598 5600 5601 5601 5601 5601 5600 5600 5599 5599 5598 5596
5550 5549 5549 5549 5549 5549 5550 5550 5551 5552 5554 5555 5556 5557 5559 5560 5562 5564 5566 5567 5569 5571 5572 5574 5575 5577 5578 5579 5580 5581 5582 5584 5585 5586 5586 5587 5586 5586 5585 5585 5584 5583 5582
5537 5537 5536 5536 5536 5536 5537 5538 5539 5539 5540 5541 5542 5543 5544 5546 5547 5549 5551 5553 5555 5556 5558 5560 5561 5562 5564 5565 5566 5566 5567 5569 5571 5571 5572 5572 5572 5572 5572 5571 5570 5570 5569
5525 5524 5524 5523 5523 5523 5523 5524 5525 5526 5527 5527 5528 5529 5530 5531 5533 5535 5537 5539 5541 5542 5544 5546 5547 5548 5550 5551 5552 5553 5554 5555 5557 5558 5558 5558 5558 5558 5557 5557 5556 5556 5555
5514 5513 5512 5511 5510 5510 5510 5511 5512 5513 5514 5514 5515 5516 5516 5517 5519 5521 5523 5525 5527 5528 5530 5532 5533 5535 5536 5538 5539 5539 5540 5542 5544 5545 5545 5545 5545 5544 5543 5543 5543 5542 5541
5502 5501 5500 5499 5498 5498 5498 5499 5499 5500 5500 5500 5501 5502 5503 5504 5506 5508 5509 5511 5513 5515 5517 5519 5520 5521 5523 5524 5525 5526 5526 5528 5530 5531 5532 5532 5532 5531 5530 5529 5529 5528 5527
5490 5489 5488 5487 5486 5486 5486 5486 5487 5487 5487 5488 5489 5490 5491 5492 5493 5495 5496 5498 5499 5501 5503 5505 5507 5508 5509 5511 5512 5513 5514 5515 5516 5518 5518 5518 5518 5517 5516 5516 5515 5514 5512
5478 5477 5476 5476 5475 5474 5474 5474 5475 5475 5475 5476 5476 5477 5478 5479 5480 5482 5483 5485 5486 5488 5490 5492 5494 5495 5497 5498 5499 5500 5501 5501 5503 5504 5505 5504 5504 5504 5503 5502 5502 5500 5499
5467 5466 5465 5464 5464 5463 5463 5462 5463 5463 5463 5464 5464 5465 5466 5467 5468 5469 5470 5472 5473 5475 5477 5479 5480 5482 5483 5485 5486 5487 5488 5489 5489 5490 5491 5491 5491 5490 5490 5490 5489 5488 5486
5456 5455 5454 5453 5452 5452 5451 5451 5451 5451 5452 5452 5453 5454 5454 5455 5456 5457 5458 5459 5461 5462 5464 5466 5467 5468 5470 5472 5473 5473 5475 5476 5477 5478 5478 5478 5478 5478 5478 5477 5476 5475 5474
5446 5444 5443 5442 5442 5441 5441 5440 5440 5440 5441 5441 5442 5442 5443 5444 5444 5445 5447 5447 5449 5450 5452 5453 5454 5455 5457 5458 5460 5461 5462 5464 5465 5465 5466 5466 5466 5466 5466 5465 5464 5463 5462